Location: Caltech
(34.1382°N, 118.1253°W)
Time: 09:18:27
(UTC-07:00)

PCSat - Visible Passes

Search period start: 18 April 2014 00:00
Search period end: 28 April 2014 00:00
Orbit: 787 x 795 km, 67.1° (Epoch: 17 April)

Date Brightness Start Highest point End Pass type
(mag) Time Alt. Az. Time Alt. Az. Time Alt. Az.
18 Apr 12.2 02:37:22 12° NNW 02:37:22 12° NNW 02:38:05 10° NNW visible
19 Apr 12.2 02:07:22 13° N 02:07:22 13° N 02:08:14 10° N visible
20 Apr 12.3 01:37:20 14° N 01:37:20 14° N 01:38:09 10° N visible
21 Apr 12.3 01:07:16 13° N 01:07:16 13° N 01:07:56 10° N visible
22 Apr 12.4 00:37:09 12° NNE 00:37:09 12° NNE 00:37:37 10° NNE visible
23 Apr 12.4 00:06:58 11° NNE 00:06:58 11° NNE 00:07:12 10° NNE visible
24 Apr 12.4 01:17:25 12° NNW 01:17:25 12° NNW 01:18:08 10° NNW visible
25 Apr 12.2 00:47:06 14° NNW 00:47:06 14° NNW 00:48:23 10° N visible
26 Apr 12.1 00:16:41 17° NNW 00:16:41 17° NNW 00:18:21 10° N visible
26 Apr 11.8 23:46:09 21° N 23:46:09 21° N 23:48:10 10° N visible
27 Apr 11.4 23:15:26 26° N 23:15:26 26° N 23:17:52 10° NNE visible
